TOM790 EGCC-HEGN

Flight info

Callsign TOM790
Flight time N/A
Altitude 35000
Route LISTO2S LISTO P18 TELBA L151 MID UL612 OGULO DCT OKASI DCT OKEKO DCT MOU DCT MADIV DCT MOKIP DCT TUFTA DCT KOGAS DCT MEDAM DCT NITAM DCT MOGBO DCT CDC DCT BELIX UM728 SALUN N705 MMA P751 DASUM Y234 FYM M872 BOPOB BOPOB1A
Aircraft B38M/M-SDE1FGHILORVWXY/HB1

Departure

Time 2026-05-06 15:34
Airport Manchester Airport (EGCC)

Arrival

Time N/A
Airport Hurghada International Airport (HEGN)
Time Latitude Longitude Altitude Speed Heading
2026-05-06 14:59 53.36951 -2.28701 257 ft 0 kts 135°
2026-05-06 15:20 53.36960 -2.28716 257 ft 3 kts 135°
2026-05-06 15:20 53.36973 -2.28738 257 ft 3 kts 150°
2026-05-06 15:21 53.36985 -2.28741 257 ft 3 kts 211°
2026-05-06 15:21 53.36993 -2.28731 257 ft 0 kts 225°
2026-05-06 15:21 53.36982 -2.28749 257 ft 3 kts 225°
2026-05-06 15:21 53.36968 -2.28772 257 ft 3 kts 225°
2026-05-06 15:22 53.36957 -2.28790 257 ft 1 kts 225°
2026-05-06 15:22 53.36956 -2.28791 257 ft 0 kts 225°
2026-05-06 15:25 53.36955 -2.28794 257 ft 1 kts 225°
2026-05-06 15:25 53.36943 -2.28813 257 ft 4 kts 224°
2026-05-06 15:25 53.36916 -2.28857 257 ft 7 kts 224°
2026-05-06 15:25 53.36875 -2.28921 257 ft 9 kts 224°
2026-05-06 15:26 53.36826 -2.28999 257 ft 10 kts 214°
2026-05-06 15:26 53.36758 -2.29036 257 ft 11 kts 172°
2026-05-06 15:26 53.36697 -2.28958 257 ft 12 kts 134°
2026-05-06 15:26 53.36627 -2.28879 257 ft 13 kts 147°
2026-05-06 15:27 53.36571 -2.28756 257 ft 14 kts 121°
2026-05-06 15:27 53.36504 -2.28630 257 ft 15 kts 134°
2026-05-06 15:27 53.36425 -2.28505 257 ft 16 kts 148°
2026-05-06 15:27 53.36340 -2.28456 257 ft 13 kts 149°
2026-05-06 15:28 53.36271 -2.28346 257 ft 15 kts 134°
2026-05-06 15:28 53.36186 -2.28204 257 ft 20 kts 135°
2026-05-06 15:28 53.36082 -2.28034 257 ft 22 kts 139°
2026-05-06 15:28 53.35986 -2.27895 257 ft 16 kts 141°
2026-05-06 15:29 53.35883 -2.27851 257 ft 16 kts 185°
2026-05-06 15:29 53.35750 -2.27875 250 ft 22 kts 186°
2026-05-06 15:29 53.35629 -2.27909 243 ft 13 kts 213°
2026-05-06 15:29 53.35568 -2.28022 239 ft 15 kts 225°
2026-05-06 15:30 53.35472 -2.28140 236 ft 19 kts 201°
2026-05-06 15:30 53.35345 -2.28181 237 ft 20 kts 195°
2026-05-06 15:30 53.35224 -2.28317 234 ft 22 kts 229°
2026-05-06 15:30 53.35118 -2.28535 230 ft 25 kts 231°
2026-05-06 15:31 53.35010 -2.28748 229 ft 22 kts 225°
2026-05-06 15:31 53.34910 -2.28918 227 ft 19 kts 227°
2026-05-06 15:31 53.34815 -2.29094 220 ft 22 kts 229°
2026-05-06 15:32 53.34631 -2.29341 219 ft 14 kts 183°
2026-05-06 15:32 53.34551 -2.29290 217 ft 8 kts 129°
2026-05-06 15:32 53.34544 -2.29218 216 ft 6 kts 71°
2026-05-06 15:32 53.34551 -2.29200 220 ft 0 kts 52°
2026-05-06 15:33 53.34567 -2.29165 216 ft 19 kts 52°
2026-05-06 15:33 53.34815 -2.28651 233 ft 92 kts 51°
2026-05-06 15:33 53.35360 -2.27527 246 ft 153 kts 51°
2026-05-06 15:33 53.36080 -2.26015 692 ft 171 kts 51°
2026-05-06 15:34 53.36813 -2.24466 1628 ft 171 kts 52°
2026-05-06 15:34 53.37527 -2.22777 2204 ft 187 kts 64°
2026-05-06 15:34 53.37687 -2.20506 2465 ft 215 kts 106°
2026-05-06 15:34 53.36753 -2.18481 3033 ft 233 kts 146°
2026-05-06 15:35 53.35263 -2.17335 3844 ft 242 kts 158°
2026-05-06 15:35 53.33579 -2.16772 4547 ft 253 kts 179°
2026-05-06 15:35 53.31873 -2.17068 5612 ft 247 kts 185°
2026-05-06 15:35 53.30096 -2.17382 6143 ft 266 kts 185°
2026-05-06 15:36 53.28207 -2.17699 6757 ft 276 kts 185°
2026-05-06 15:36 53.26292 -2.18011 7578 ft 279 kts 186°
2026-05-06 15:36 53.24343 -2.18324 8406 ft 282 kts 186°
2026-05-06 15:36 53.22374 -2.18637 9152 ft 289 kts 186°
2026-05-06 15:37 53.20359 -2.18955 9949 ft 292 kts 186°
2026-05-06 15:37 53.18303 -2.19279 10496 ft 304 kts 186°
2026-05-06 15:37 53.16124 -2.19623 10805 ft 324 kts 186°
2026-05-06 15:37 53.13830 -2.19982 11213 ft 338 kts 187°
2026-05-06 15:38 53.11459 -2.20354 11785 ft 345 kts 187°
2026-05-06 15:38 53.09079 -2.20728 12516 ft 348 kts 187°
2026-05-06 15:38 53.06650 -2.21108 13205 ft 352 kts 187°
2026-05-06 15:38 53.04231 -2.21480 13946 ft 355 kts 187°
2026-05-06 15:39 53.01770 -2.21868 14540 ft 359 kts 187°
2026-05-06 15:39 52.99245 -2.22262 15207 ft 362 kts 187°
2026-05-06 15:39 52.96764 -2.22647 15829 ft 365 kts 187°
2026-05-06 15:39 52.94189 -2.23047 16465 ft 368 kts 187°
2026-05-06 15:40 52.91663 -2.23439 17091 ft 371 kts 187°
2026-05-06 15:40 52.89085 -2.23838 17726 ft 374 kts 187°
2026-05-06 15:40 52.86497 -2.24255 18325 ft 376 kts 190°